User: anonymous   Login
Location: Morlupo
(42.1333°N, 12.5000°E)
Time: 03:16:56
(UTC+00:00)
Language:

Cosmos 1464 Rocket - Orbit

View from above orbital plane
View from above orbital plane
View from above satellite
View from above satellite

Ground track
Ground track

The orbit data is extracted from the following two-line orbital elements,

1 14085U 83048B   20338.13424583  .00000071  00000-0  57122-4 0  9996
2 14085  82.9456 230.8407 0033564 165.8609 194.3496 13.76296246884400
Epoch (UTC): 03 December 2020 03:13:18
Eccentricity: 0.0033564
inclination: 82.9456°
perigee height: 952 km
apogee height: 1002 km
right ascension of ascending node: 230.8407°
argument of perigee: 165.8609°
revolutions per day: 13.76296246
mean anomaly at epoch: 194.3496°
orbit number at epoch: 88440

The dashed part of the orbit path shows where the satellite is in the earth's shadow,  

DLR